Time,TemperatureF,DewpointF,PressureIn,WindDirection,WindDirectionDegrees,WindSpeedMPH,WindSpeedGustMPH,Humidity,HourlyPrecipIn,Conditions,Clouds,dailyrainin,SoftwareType,DateUTC
2013-09-09 00:01:00,71.8,45.5,29.62,North,0,0.0,0.0,39,0.00,CLR,,0.00,WeatherDisplay:10.37,2013-09-09 04:01:00,
2013-09-09 00:06:00,71.8,45.5,29.65,North,0,0.0,0.0,39,0.00,CLR,,0.00,WeatherDisplay:10.37,2013-09-09 04:06:00,
2013-09-09 00:11:00,71.8,45.5,29.65,North,0,0.0,0.0,39,0.00,CLR,,0.00,WeatherDisplay:10.37,2013-09-09 04:11:00,
2013-09-09 00:16:00,72.0,45.6,29.65,North,0,0.0,0.0,39,0.00,CLR,,0.00,WeatherDisplay:10.37,2013-09-09 04:16:00,
2013-09-09 00:21:00,72.0,46.3,29.62,North,0,0.0,0.0,40,0.00,CLR,,0.00,WeatherDisplay:10.37,2013-09-09 04:21:00,
2013-09-09 00:26:00,71.8,46.2,29.62,North,0,0.0,0.0,40,0.00,CLR,,0.00,WeatherDisplay:10.37,2013-09-09 04:26:00,
2013-09-09 00:31:00,71.8,46.2,29.62,North,0,0.0,0.0,40,0.00,CLR,,0.00,WeatherDisplay:10.37,2013-09-09 04:31:00,
2013-09-09 00:36:00,71.8,46.2,29.62,North,0,0.0,0.0,40,0.00,CLR,,0.00,WeatherDisplay:10.37,2013-09-09 04:36:00,
2013-09-09 00:41:00,71.8,46.8,29.62,North,0,0.0,0.0,41,0.00,CLR,,0.00,WeatherDisplay:10.37,2013-09-09 04:41:00,
2013-09-09 00:46:00,71.8,46.8,29.62,North,0,0.0,0.0,41,0.00,CLR,,0.00,WeatherDisplay:10.37,2013-09-09 04:46:00,
2013-09-09 00:51:00,71.8,46.8,29.62,North,0,0.0,0.0,41,0.00,CLR,,0.00,WeatherDisplay:10.37,2013-09-09 04:51:00,
2013-09-09 00:56:00,71.8,46.8,29.62,North,0,0.0,0.0,41,0.00,CLR,,0.00,WeatherDisplay:10.37,2013-09-09 04:56:00,
2013-09-09 01:01:00,71.8,46.8,29.62,North,0,0.0,0.0,41,0.00,CLR,,0.00,WeatherDisplay:10.37,2013-09-09 05:01:00,
2013-09-09 01:06:00,71.8,46.8,29.62,North,0,0.0,0.0,41,0.00,CLR,,0.00,WeatherDisplay:10.37,2013-09-09 05:06:00,
2013-09-09 01:11:00,71.8,47.4,29.62,North,0,0.0,0.0,42,0.00,CLR,,0.00,WeatherDisplay:10.37,2013-09-09 05:11:00,
2013-09-09 01:16:00,71.8,47.4,29.62,North,0,0.0,0.0,42,0.00,CLR,,0.00,WeatherDisplay:10.37,2013-09-09 05:16:00,
2013-09-09 01:21:00,71.8,47.4,29.65,North,0,0.0,0.0,42,0.00,CLR,,0.00,WeatherDisplay:10.37,2013-09-09 05:21:00,
2013-09-09 01:26:00,71.8,47.4,29.65,North,0,0.0,0.0,42,0.00,CLR,,0.00,WeatherDisplay:10.37,2013-09-09 05:26:00,
2013-09-09 01:31:00,71.8,47.4,29.65,North,0,0.0,0.0,42,0.00,CLR,,0.00,WeatherDisplay:10.37,2013-09-09 05:31:00,
2013-09-09 01:36:00,71.8,47.4,29.65,North,0,0.0,0.0,42,0.00,CLR,,0.00,WeatherDisplay:10.37,2013-09-09 05:36:00,
2013-09-09 01:41:00,72.0,47.6,29.65,North,0,0.0,0.0,42,0.00,CLR,,0.00,WeatherDisplay:10.37,2013-09-09 05:41:00,
2013-09-09 01:46:00,72.0,47.6,29.65,North,0,0.0,0.0,42,0.00,CLR,,0.00,WeatherDisplay:10.37,2013-09-09 05:46:00,
2013-09-09 01:51:00,72.0,47.0,29.65,North,0,0.0,0.0,41,0.00,CLR,,0.00,WeatherDisplay:10.37,2013-09-09 05:51:00,
2013-09-09 01:56:00,72.0,47.0,29.65,North,0,0.0,0.0,41,0.00,CLR,,0.00,WeatherDisplay:10.37,2013-09-09 05:56:00,
2013-09-09 02:01:00,72.0,47.0,29.65,North,0,0.0,0.0,41,0.00,CLR,,0.00,WeatherDisplay:10.37,2013-09-09 06:01:00,
2013-09-09 02:06:00,72.0,46.3,29.65,North,0,0.0,0.0,40,0.00,CLR,,0.00,WeatherDisplay:10.37,2013-09-09 06:06:00,
2013-09-09 02:11:00,72.1,45.8,29.65,North,0,0.0,0.0,39,0.00,CLR,,0.00,WeatherDisplay:10.37,2013-09-09 06:11:00,
2013-09-09 02:16:00,72.1,45.8,29.65,North,0,0.0,0.0,39,0.00,CLR,,0.00,WeatherDisplay:10.37,2013-09-09 06:16:00,
2013-09-09 02:21:00,72.1,45.1,29.65,North,0,0.0,0.0,38,0.00,CLR,,0.00,WeatherDisplay:10.37,2013-09-09 06:21:00,
2013-09-09 02:26:00,72.1,45.1,29.65,North,0,0.0,0.0,38,0.00,CLR,,0.00,WeatherDisplay:10.37,2013-09-09 06:26:00,
2013-09-09 02:31:00,72.1,44.4,29.65,North,0,0.0,0.0,37,0.00,CLR,,0.00,WeatherDisplay:10.37,2013-09-09 06:31:00,
2013-09-09 02:36:00,72.1,44.4,29.65,North,0,0.0,0.0,37,0.00,CLR,,0.00,WeatherDisplay:10.37,2013-09-09 06:36:00,
2013-09-09 02:41:00,72.0,43.5,29.65,North,0,0.0,0.0,36,0.00,CLR,,0.00,WeatherDisplay:10.37,2013-09-09 06:41:00,
2013-09-09 02:46:00,72.0,43.5,29.65,North,0,0.0,0.0,36,0.00,CLR,,0.00,WeatherDisplay:10.37,2013-09-09 06:46:00,
2013-09-09 02:51:00,72.0,42.8,29.65,North,0,0.0,0.0,35,0.00,CLR,,0.00,WeatherDisplay:10.37,2013-09-09 06:51:00,
2013-09-09 02:56:00,72.0,42.8,29.65,North,0,0.0,0.0,35,0.00,CLR,,0.00,WeatherDisplay:10.37,2013-09-09 06:56:00,
2013-09-09 03:01:00,72.0,42.0,29.65,North,0,0.0,0.0,34,0.00,CLR,,0.00,WeatherDisplay:10.37,2013-09-09 07:01:00,
2013-09-09 03:06:00,72.0,42.0,29.65,North,0,0.0,0.0,34,0.00,CLR,,0.00,WeatherDisplay:10.37,2013-09-09 07:06:00,
2013-09-09 03:11:00,72.0,41.3,29.65,North,0,0.0,0.0,33,0.00,CLR,,0.00,WeatherDisplay:10.37,2013-09-09 07:11:00,
2013-09-09 03:16:00,71.8,41.1,29.65,North,0,0.0,0.0,33,0.00,CLR,,0.00,WeatherDisplay:10.37,2013-09-09 07:16:00,
2013-09-09 03:21:00,71.8,41.1,29.65,North,0,0.0,0.0,33,0.00,CLR,,0.00,WeatherDisplay:10.37,2013-09-09 07:21:00,
2013-09-09 03:27:00,71.8,41.1,29.65,North,0,0.0,0.0,33,0.00,CLR,,0.00,WeatherDisplay:10.37,2013-09-09 07:27:00,
2013-09-09 03:32:00,71.8,41.1,29.65,North,0,0.0,0.0,33,0.00,CLR,,0.00,WeatherDisplay:10.37,2013-09-09 07:32:00,
2013-09-09 03:37:00,71.8,40.3,29.65,North,0,0.0,0.0,32,0.00,CLR,,0.00,WeatherDisplay:10.37,2013-09-09 07:37:00,
2013-09-09 03:42:00,71.6,40.2,29.65,North,0,0.0,0.0,32,0.00,CLR,,0.00,WeatherDisplay:10.37,2013-09-09 07:42:00,
2013-09-09 03:47:00,71.6,40.2,29.65,North,0,0.0,0.0,32,0.00,CLR,,0.00,WeatherDisplay:10.37,2013-09-09 07:47:00,
2013-09-09 03:52:00,71.6,40.2,29.65,North,0,0.0,0.0,32,0.00,CLR,,0.00,WeatherDisplay:10.37,2013-09-09 07:52:00,
2013-09-09 03:57:00,71.6,40.2,29.65,North,0,0.0,0.0,32,0.00,CLR,,0.00,WeatherDisplay:10.37,2013-09-09 07:57:00,
2013-09-09 04:02:00,71.6,39.3,29.65,North,0,0.0,0.0,31,0.00,CLR,,0.00,WeatherDisplay:10.37,2013-09-09 08:02:00,
2013-09-09 04:07:00,71.4,40.0,29.65,North,0,0.0,0.0,32,0.00,CLR,,0.00,WeatherDisplay:10.37,2013-09-09 08:07:00,
2013-09-09 04:12:00,71.4,39.2,29.65,North,0,0.0,0.0,31,0.00,CLR,,0.00,WeatherDisplay:10.37,2013-09-09 08:12:00,
2013-09-09 04:17:00,71.2,38.2,29.65,North,0,0.0,0.0,30,0.00,CLR,,0.00,WeatherDisplay:10.37,2013-09-09 08:17:00,
2013-09-09 04:22:00,71.2,37.3,29.65,North,0,0.0,0.0,29,0.00,CLR,,0.00,WeatherDisplay:10.37,2013-09-09 08:22:00,
2013-09-09 04:27:00,71.1,36.3,29.65,North,0,0.0,0.0,28,0.00,CLR,,0.00,WeatherDisplay:10.37,2013-09-09 08:27:00,
2013-09-09 04:32:00,71.1,37.2,29.68,North,0,0.0,0.0,29,0.00,CLR,,0.00,WeatherDisplay:10.37,2013-09-09 08:32:00,
2013-09-09 04:37:00,71.1,36.3,29.68,North,0,0.0,0.0,28,0.00,CLR,,0.00,WeatherDisplay:10.37,2013-09-09 08:37:00,
2013-09-09 04:42:00,70.9,36.1,29.68,North,0,0.0,0.0,28,0.00,CLR,,0.00,WeatherDisplay:10.37,2013-09-09 08:42:00,
2013-09-09 04:47:00,70.9,36.1,29.68,North,0,0.0,0.0,28,0.00,CLR,,0.00,WeatherDisplay:10.37,2013-09-09 08:47:00,
2013-09-09 04:52:00,70.7,36.0,29.68,North,0,0.0,0.0,28,0.00,CLR,,0.00,WeatherDisplay:10.37,2013-09-09 08:52:00,
2013-09-09 04:57:00,70.5,34.9,29.68,North,0,0.0,0.0,27,0.00,CLR,,0.00,WeatherDisplay:10.37,2013-09-09 08:57:00,
2013-09-09 05:02:00,70.5,34.9,29.68,North,0,0.0,0.0,27,0.00,CLR,,0.00,WeatherDisplay:10.37,2013-09-09 09:02:00,
2013-09-09 05:07:00,70.3,34.8,29.68,North,0,0.0,0.0,27,0.00,CLR,,0.00,WeatherDisplay:10.37,2013-09-09 09:07:00,
2013-09-09 05:12:00,70.2,33.7,29.68,North,0,0.0,0.0,26,0.00,CLR,,0.00,WeatherDisplay:10.37,2013-09-09 09:12:00,
2013-09-09 05:17:00,70.2,33.7,29.68,North,0,0.0,0.0,26,0.00,CLR,,0.00,WeatherDisplay:10.37,2013-09-09 09:17:00,
2013-09-09 05:22:00,70.0,33.5,29.68,North,0,0.0,0.0,26,0.00,CLR,,0.00,WeatherDisplay:10.37,2013-09-09 09:22:00,
2013-09-09 05:27:00,69.8,33.3,29.68,North,0,0.0,0.0,26,0.00,CLR,,0.00,WeatherDisplay:10.37,2013-09-09 09:27:00,
2013-09-09 05:32:00,69.8,33.3,29.68,North,0,0.0,0.0,26,0.00,CLR,,0.00,WeatherDisplay:10.37,2013-09-09 09:32:00,
2013-09-09 05:37:00,69.6,33.2,29.68,North,0,0.0,0.0,26,0.00,CLR,,0.00,WeatherDisplay:10.37,2013-09-09 09:37:00,
2013-09-09 05:42:00,69.6,33.2,29.68,North,0,0.0,0.0,26,0.00,CLR,,0.00,WeatherDisplay:10.37,2013-09-09 09:42:00,
2013-09-09 05:47:00,69.4,31.0,29.71,North,0,0.0,0.0,24,0.00,CLR,,0.00,WeatherDisplay:10.37,2013-09-09 09:47:00,
2013-09-09 05:52:00,69.4,32.1,29.71,North,0,0.0,0.0,25,0.00,CLR,,0.00,WeatherDisplay:10.37,2013-09-09 09:52:00,
2013-09-09 05:57:00,69.3,31.9,29.71,North,0,0.0,0.0,25,0.00,CLR,,0.00,WeatherDisplay:10.37,2013-09-09 09:57:00,
2013-09-09 06:02:00,69.3,31.9,29.71,North,0,0.0,0.0,25,0.00,CLR,,0.00,WeatherDisplay:10.37,2013-09-09 10:02:00,
2013-09-09 06:07:00,69.1,32.7,29.71,North,0,0.0,0.0,26,0.00,CLR,,0.00,WeatherDisplay:10.37,2013-09-09 10:07:00,
2013-09-09 06:12:00,69.1,31.8,29.71,North,0,0.0,0.0,25,0.00,CLR,,0.00,WeatherDisplay:10.37,2013-09-09 10:12:00,
2013-09-09 06:17:00,68.9,31.6,29.71,North,0,0.0,0.0,25,0.00,CLR,,0.00,WeatherDisplay:10.37,2013-09-09 10:17:00,
2013-09-09 06:22:00,68.9,31.6,29.71,North,0,0.0,0.0,25,0.00,CLR,,0.00,WeatherDisplay:10.37,2013-09-09 10:22:00,
2013-09-09 06:27:00,68.9,31.6,29.71,North,0,0.0,0.0,25,0.00,CLR,,0.00,WeatherDisplay:10.37,2013-09-09 10:27:00,
2013-09-09 06:32:00,68.7,31.4,29.71,North,0,0.0,0.0,25,0.00,CLR,,0.00,WeatherDisplay:10.37,2013-09-09 10:32:00,
2013-09-09 06:37:00,68.7,31.4,29.71,North,0,0.0,0.0,25,0.00,CLR,,0.00,WeatherDisplay:10.37,2013-09-09 10:37:00,
2013-09-09 06:42:00,68.5,30.3,29.71,North,0,0.0,0.0,24,0.00,CLR,,0.00,WeatherDisplay:10.37,2013-09-09 10:42:00,
2013-09-09 06:47:00,68.5,29.2,29.74,North,0,0.0,0.0,23,0.00,CLR,,0.00,WeatherDisplay:10.37,2013-09-09 10:47:00,
2013-09-09 06:52:00,68.5,29.2,29.74,North,0,0.0,0.0,23,0.00,CLR,,0.00,WeatherDisplay:10.37,2013-09-09 10:52:00,
2013-09-09 06:57:00,68.4,29.1,29.74,North,0,0.0,0.0,23,0.00,CLR,,0.00,WeatherDisplay:10.37,2013-09-09 10:57:00,
2013-09-09 07:02:00,68.4,29.1,29.74,North,0,0.0,0.0,23,0.00,CLR,,0.00,WeatherDisplay:10.37,2013-09-09 11:02:00,
2013-09-09 07:07:00,68.4,29.1,29.74,North,0,0.0,0.0,23,0.00,CLR,,0.00,WeatherDisplay:10.37,2013-09-09 11:07:00,
2013-09-09 07:12:00,68.2,28.9,29.74,North,0,0.0,0.0,23,0.00,CLR,,0.00,WeatherDisplay:10.37,2013-09-09 11:12:00,
2013-09-09 07:17:00,68.0,28.8,29.74,North,0,0.0,0.0,23,0.00,CLR,,0.00,WeatherDisplay:10.37,2013-09-09 11:17:00,
2013-09-09 07:22:00,68.0,28.8,29.74,North,0,0.0,0.0,23,0.00,CLR,,0.00,WeatherDisplay:10.37,2013-09-09 11:22:00,
2013-09-09 07:27:00,68.0,27.7,29.74,North,0,0.0,0.0,22,0.00,CLR,,0.00,WeatherDisplay:10.37,2013-09-09 11:27:00,
2013-09-09 07:32:00,68.0,28.8,29.74,North,0,0.0,0.0,23,0.00,CLR,,0.00,WeatherDisplay:10.37,2013-09-09 11:32:00,
2013-09-09 07:37:00,68.0,28.8,29.74,North,0,0.0,0.0,23,0.00,CLR,,0.00,WeatherDisplay:10.37,2013-09-09 11:37:00,
2013-09-09 07:42:00,67.8,28.6,29.74,North,0,0.0,0.0,23,0.00,CLR,,0.00,WeatherDisplay:10.37,2013-09-09 11:42:00,
2013-09-09 07:47:00,67.8,28.6,29.77,North,0,0.0,0.0,23,0.00,CLR,,0.00,WeatherDisplay:10.37,2013-09-09 11:47:00,
2013-09-09 07:52:00,67.8,28.6,29.77,North,0,0.0,0.0,23,0.00,CLR,,0.00,WeatherDisplay:10.37,2013-09-09 11:52:00,
2013-09-09 07:57:00,67.8,28.6,29.77,North,0,0.0,0.0,23,0.00,CLR,,0.00,WeatherDisplay:10.37,2013-09-09 11:57:00,
2013-09-09 08:03:00,67.8,28.6,29.77,North,0,0.0,0.0,23,0.00,CLR,,0.00,WeatherDisplay:10.37,2013-09-09 12:03:00,
2013-09-09 08:08:00,67.6,28.5,29.77,North,0,0.0,0.0,23,0.00,CLR,,0.00,WeatherDisplay:10.37,2013-09-09 12:08:00,
2013-09-09 08:13:00,67.6,28.5,29.77,North,0,0.0,0.0,23,0.00,CLR,,0.00,WeatherDisplay:10.37,2013-09-09 12:13:00,
2013-09-09 08:18:00,67.6,28.5,29.77,North,0,0.0,0.0,23,0.00,CLR,,0.00,WeatherDisplay:10.37,2013-09-09 12:18:00,
2013-09-09 08:23:00,67.6,28.5,29.77,North,0,0.0,0.0,23,0.00,CLR,,0.00,WeatherDisplay:10.37,2013-09-09 12:23:00,
2013-09-09 08:28:00,67.6,28.5,29.77,North,0,0.0,0.0,23,0.00,CLR,,0.00,WeatherDisplay:10.37,2013-09-09 12:28:00,
2013-09-09 08:33:00,67.6,28.5,29.77,North,0,0.0,0.0,23,0.00,CLR,,0.00,WeatherDisplay:10.37,2013-09-09 12:33:00,
2013-09-09 08:38:00,67.8,28.6,29.77,North,0,0.0,0.0,23,0.00,CLR,,0.00,WeatherDisplay:10.37,2013-09-09 12:38:00,
2013-09-09 08:43:00,67.8,28.6,29.77,North,0,0.0,0.0,23,0.00,CLR,,0.00,WeatherDisplay:10.37,2013-09-09 12:43:00,
2013-09-09 08:48:00,68.0,28.8,29.77,North,0,0.0,0.0,23,0.00,CLR,,0.00,WeatherDisplay:10.37,2013-09-09 12:48:00,
2013-09-09 08:53:00,68.2,28.9,29.77,North,0,0.0,0.0,23,0.00,CLR,,0.00,WeatherDisplay:10.37,2013-09-09 12:53:00,
2013-09-09 08:58:00,68.2,28.9,29.77,North,0,0.0,0.0,23,0.00,CLR,,0.00,WeatherDisplay:10.37,2013-09-09 12:58:00,
2013-09-09 09:03:00,68.2,28.9,29.80,North,0,0.0,0.0,23,0.00,CLR,,0.00,WeatherDisplay:10.37,2013-09-09 13:03:00,
2013-09-09 09:08:00,68.0,28.8,29.80,North,0,0.0,0.0,23,0.00,CLR,,0.00,WeatherDisplay:10.37,2013-09-09 13:08:00,
2013-09-09 09:13:00,68.0,28.8,29.80,North,0,0.0,0.0,23,0.00,CLR,,0.00,WeatherDisplay:10.37,2013-09-09 13:13:00,
2013-09-09 09:18:00,68.0,28.8,29.80,North,0,0.0,0.0,23,0.00,CLR,,0.00,WeatherDisplay:10.37,2013-09-09 13:18:00,
2013-09-09 09:23:00,68.2,28.9,29.80,North,0,0.0,0.0,23,0.00,CLR,,0.00,WeatherDisplay:10.37,2013-09-09 13:23:00,
2013-09-09 09:28:00,68.5,29.2,29.80,North,0,0.0,0.0,23,0.00,CLR,,0.00,WeatherDisplay:10.37,2013-09-09 13:28:00,
2013-09-09 09:33:00,69.1,28.6,29.80,North,0,0.0,0.0,22,0.00,CLR,,0.00,WeatherDisplay:10.37,2013-09-09 13:33:00,
2013-09-09 09:38:00,69.4,28.9,29.80,North,0,0.0,0.0,22,0.00,CLR,,0.00,WeatherDisplay:10.37,2013-09-09 13:38:00,
2013-09-09 09:43:00,69.8,29.2,29.80,North,0,0.0,0.0,22,0.00,CLR,,0.00,WeatherDisplay:10.37,2013-09-09 13:43:00,
2013-09-09 09:48:00,70.7,30.0,29.80,North,0,0.0,0.0,22,0.00,CLR,,0.00,WeatherDisplay:10.37,2013-09-09 13:48:00,
2013-09-09 09:53:00,71.2,30.4,29.80,North,0,0.0,0.0,22,0.00,CLR,,0.00,WeatherDisplay:10.37,2013-09-09 13:53:00,
2013-09-09 09:58:00,71.8,30.9,29.80,North,0,0.0,0.0,22,0.00,CLR,,0.00,WeatherDisplay:10.37,2013-09-09 13:58:00,
2013-09-09 10:03:00,72.5,30.3,29.80,North,0,0.0,0.0,21,0.00,CLR,,0.00,WeatherDisplay:10.37,2013-09-09 14:03:00,
2013-09-09 10:08:00,73.0,30.8,29.80,North,0,0.0,0.0,21,0.00,CLR,,0.00,WeatherDisplay:10.37,2013-09-09 14:08:00,
2013-09-09 10:13:00,73.0,30.8,29.80,North,0,0.0,0.0,21,0.00,CLR,,0.00,WeatherDisplay:10.37,2013-09-09 14:13:00,
2013-09-09 10:18:00,73.0,28.3,29.80,North,0,0.0,0.0,19,0.00,CLR,,0.00,WeatherDisplay:10.37,2013-09-09 14:18:00,
2013-09-09 10:23:00,73.2,28.5,29.80,North,0,0.0,0.0,19,0.00,CLR,,0.00,WeatherDisplay:10.37,2013-09-09 14:23:00,
2013-09-09 10:28:00,73.0,28.3,29.80,North,0,0.0,0.0,19,0.00,CLR,,0.00,WeatherDisplay:10.37,2013-09-09 14:28:00,
2013-09-09 10:33:00,73.2,28.5,29.80,North,0,0.0,0.0,19,0.00,CLR,,0.00,WeatherDisplay:10.37,2013-09-09 14:33:00,
2013-09-09 10:38:00,73.9,27.7,29.80,North,0,0.0,0.0,18,0.00,CLR,,0.00,WeatherDisplay:10.37,2013-09-09 14:38:00,
2013-09-09 10:43:00,73.8,27.6,29.80,North,0,0.0,0.0,18,0.00,CLR,,0.00,WeatherDisplay:10.37,2013-09-09 14:43:00,
2013-09-09 10:48:00,73.8,27.6,29.80,North,0,0.0,0.0,18,0.00,CLR,,0.00,WeatherDisplay:10.37,2013-09-09 14:48:00,
2013-09-09 10:53:00,74.3,28.0,29.80,North,0,0.0,0.0,18,0.00,CLR,,0.00,WeatherDisplay:10.37,2013-09-09 14:53:00,
2013-09-09 10:58:00,74.8,28.5,29.80,North,0,0.0,0.0,18,0.00,CLR,,0.00,WeatherDisplay:10.37,2013-09-09 14:58:00,
2013-09-09 11:03:00,75.0,28.6,29.80,North,0,0.0,0.0,18,0.00,CLR,,0.00,WeatherDisplay:10.37,2013-09-09 15:03:00,
2013-09-09 11:08:00,75.0,28.6,29.80,North,0,0.0,0.0,18,0.00,CLR,,0.00,WeatherDisplay:10.37,2013-09-09 15:08:00,
2013-09-09 11:13:00,74.8,28.5,29.80,North,0,0.0,0.0,18,0.00,CLR,,0.00,WeatherDisplay:10.37,2013-09-09 15:13:00,
2013-09-09 11:18:00,75.2,28.8,29.80,North,0,0.0,0.0,18,0.00,CLR,,0.00,WeatherDisplay:10.37,2013-09-09 15:18:00,
2013-09-09 11:23:00,75.7,29.2,29.80,North,0,0.0,0.0,18,0.00,CLR,,0.00,WeatherDisplay:10.37,2013-09-09 15:23:00,
2013-09-09 11:28:00,76.1,29.5,29.80,North,0,0.0,0.0,18,0.00,CLR,,0.00,WeatherDisplay:10.37,2013-09-09 15:28:00,
2013-09-09 11:33:00,75.9,29.3,29.83,North,0,0.0,0.0,18,0.00,CLR,,0.00,WeatherDisplay:10.37,2013-09-09 15:33:00,
2013-09-09 11:38:00,76.1,29.5,29.83,North,0,0.0,0.0,18,0.00,CLR,,0.00,WeatherDisplay:10.37,2013-09-09 15:38:00,
2013-09-09 11:43:00,76.3,29.6,29.83,North,0,0.0,0.0,18,0.00,CLR,,0.00,WeatherDisplay:10.37,2013-09-09 15:43:00,
2013-09-09 11:48:00,76.5,29.8,29.83,North,0,0.0,0.0,18,0.00,CLR,,0.00,WeatherDisplay:10.37,2013-09-09 15:48:00,
2013-09-09 11:53:00,76.5,29.8,29.83,North,0,0.0,0.0,18,0.00,CLR,,0.00,WeatherDisplay:10.37,2013-09-09 15:53:00,
2013-09-09 11:58:00,76.3,29.6,29.83,North,0,0.0,0.0,18,0.00,CLR,,0.00,WeatherDisplay:10.37,2013-09-09 15:58:00,
2013-09-09 12:03:00,76.3,29.6,29.83,North,0,0.0,0.0,18,0.00,CLR,,0.00,WeatherDisplay:10.37,2013-09-09 16:03:00,
2013-09-09 12:08:00,76.3,29.6,29.83,North,0,0.0,0.0,18,0.00,CLR,,0.00,WeatherDisplay:10.37,2013-09-09 16:08:00,
2013-09-09 12:13:00,76.1,29.5,29.83,North,0,0.0,0.0,18,0.00,CLR,,0.00,WeatherDisplay:10.37,2013-09-09 16:13:00,
2013-09-09 12:18:00,76.3,29.6,29.83,North,0,0.0,0.0,18,0.00,CLR,,0.00,WeatherDisplay:10.37,2013-09-09 16:18:00,
2013-09-09 12:23:00,76.6,29.9,29.83,North,0,0.0,0.0,18,0.00,CLR,,0.00,WeatherDisplay:10.37,2013-09-09 16:23:00,
2013-09-09 12:28:00,76.6,29.9,29.83,North,0,0.0,0.0,18,0.00,CLR,,0.00,WeatherDisplay:10.37,2013-09-09 16:28:00,
2013-09-09 12:33:00,76.6,29.9,29.80,North,0,0.0,0.0,18,0.00,CLR,,0.00,WeatherDisplay:10.37,2013-09-09 16:33:00,
2013-09-09 12:38:00,76.6,29.9,29.80,North,0,0.0,0.0,18,0.00,CLR,,0.00,WeatherDisplay:10.37,2013-09-09 16:38:00,
2013-09-09 12:43:00,76.6,29.9,29.80,North,0,0.0,0.0,18,0.00,CLR,,0.00,WeatherDisplay:10.37,2013-09-09 16:43:00,
2013-09-09 12:48:00,76.8,30.1,29.80,North,0,0.0,0.0,18,0.00,CLR,,0.00,WeatherDisplay:10.37,2013-09-09 16:48:00,
2013-09-09 12:53:00,76.6,29.9,29.80,North,0,0.0,0.0,18,0.00,CLR,,0.00,WeatherDisplay:10.37,2013-09-09 16:53:00,
2013-09-09 12:58:00,76.6,29.9,29.80,North,0,0.0,0.0,18,0.00,CLR,,0.00,WeatherDisplay:10.37,2013-09-09 16:58:00,
2013-09-09 13:03:00,76.6,29.9,29.80,North,0,0.0,0.0,18,0.00,CLR,,0.00,WeatherDisplay:10.37,2013-09-09 17:03:00,
2013-09-09 13:08:00,76.8,30.1,29.80,North,0,0.0,0.0,18,0.00,CLR,,0.00,WeatherDisplay:10.37,2013-09-09 17:08:00,
2013-09-09 13:13:00,76.8,30.1,29.80,North,0,0.0,0.0,18,0.00,CLR,,0.00,WeatherDisplay:10.37,2013-09-09 17:13:00,
2013-09-09 13:18:00,76.8,30.1,29.80,North,0,0.0,0.0,18,0.00,CLR,,0.00,WeatherDisplay:10.37,2013-09-09 17:18:00,
2013-09-09 13:23:00,76.6,29.9,29.80,North,0,0.0,0.0,18,0.00,CLR,,0.00,WeatherDisplay:10.37,2013-09-09 17:23:00,
2013-09-09 13:28:00,76.6,32.5,29.80,North,0,0.0,0.0,20,0.00,CLR,,0.00,WeatherDisplay:10.37,2013-09-09 17:28:00,
2013-09-09 13:33:00,76.6,32.5,29.80,North,0,0.0,0.0,20,0.00,CLR,,0.00,WeatherDisplay:10.37,2013-09-09 17:33:00,
2013-09-09 13:39:00,76.6,32.5,29.80,North,0,0.0,0.0,20,0.00,CLR,,0.00,WeatherDisplay:10.37,2013-09-09 17:39:00,
2013-09-09 13:44:00,76.6,32.5,29.80,North,0,0.0,0.0,20,0.00,CLR,,0.00,WeatherDisplay:10.37,2013-09-09 17:44:00,
2013-09-09 13:49:00,76.8,32.7,29.80,North,0,0.0,0.0,20,0.00,CLR,,0.00,WeatherDisplay:10.37,2013-09-09 17:49:00,
2013-09-09 13:54:00,76.8,32.7,29.80,North,0,0.0,0.0,20,0.00,CLR,,0.00,WeatherDisplay:10.37,2013-09-09 17:54:00,
2013-09-09 13:59:00,76.6,32.5,29.80,North,0,0.0,0.0,20,0.00,CLR,,0.00,WeatherDisplay:10.37,2013-09-09 17:59:00,
2013-09-09 14:04:00,76.8,32.7,29.80,North,0,0.0,0.0,20,0.00,CLR,,0.00,WeatherDisplay:10.37,2013-09-09 18:04:00,
2013-09-09 14:09:00,76.8,32.7,29.80,North,0,0.0,0.0,20,0.00,CLR,,0.00,WeatherDisplay:10.37,2013-09-09 18:09:00,
2013-09-09 14:14:00,76.8,32.7,29.80,North,0,0.0,0.0,20,0.00,CLR,,0.00,WeatherDisplay:10.37,2013-09-09 18:14:00,
2013-09-09 14:19:00,77.0,32.8,29.80,North,0,0.0,0.0,20,0.00,CLR,,0.00,WeatherDisplay:10.37,2013-09-09 18:19:00,
2013-09-09 14:24:00,77.0,32.8,29.80,North,0,0.0,0.0,20,0.00,CLR,,0.00,WeatherDisplay:10.37,2013-09-09 18:24:00,
2013-09-09 14:29:00,77.2,33.0,29.80,North,0,0.0,0.0,20,0.00,CLR,,0.00,WeatherDisplay:10.37,2013-09-09 18:29:00,
2013-09-09 14:34:00,77.2,33.0,29.80,North,0,0.0,0.0,20,0.00,CLR,,0.00,WeatherDisplay:10.37,2013-09-09 18:34:00,
2013-09-09 14:39:00,77.2,33.0,29.80,North,0,0.0,0.0,20,0.00,CLR,,0.00,WeatherDisplay:10.37,2013-09-09 18:39:00,
2013-09-09 14:44:00,77.2,33.0,29.80,North,0,0.0,0.0,20,0.00,CLR,,0.00,WeatherDisplay:10.37,2013-09-09 18:44:00,
2013-09-09 14:49:00,77.2,33.0,29.80,North,0,0.0,0.0,20,0.00,CLR,,0.00,WeatherDisplay:10.37,2013-09-09 18:49:00,
2013-09-09 14:54:00,77.2,33.0,29.80,North,0,0.0,0.0,20,0.00,CLR,,0.00,WeatherDisplay:10.37,2013-09-09 18:54:00,
2013-09-09 14:59:00,77.4,33.1,29.80,North,0,0.0,0.0,20,0.00,CLR,,0.00,WeatherDisplay:10.37,2013-09-09 18:59:00,
2013-09-09 15:04:00,77.5,33.3,29.80,North,0,0.0,0.0,20,0.00,CLR,,0.00,WeatherDisplay:10.37,2013-09-09 19:04:00,
2013-09-09 15:09:00,77.5,33.3,29.80,North,0,0.0,0.0,20,0.00,CLR,,0.00,WeatherDisplay:10.37,2013-09-09 19:09:00,
2013-09-09 15:14:00,77.5,33.3,29.80,North,0,0.0,0.0,20,0.00,CLR,,0.00,WeatherDisplay:10.37,2013-09-09 19:14:00,
2013-09-09 15:19:00,77.5,33.3,29.80,North,0,0.0,0.0,20,0.00,CLR,,0.00,WeatherDisplay:10.37,2013-09-09 19:19:00,
2013-09-09 15:24:00,77.5,33.3,29.80,North,0,0.0,0.0,20,0.00,CLR,,0.00,WeatherDisplay:10.37,2013-09-09 19:24:00,
2013-09-09 15:29:00,77.5,33.3,29.80,North,0,0.0,0.0,20,0.00,CLR,,0.00,WeatherDisplay:10.37,2013-09-09 19:29:00,
2013-09-09 15:34:00,77.5,33.3,29.80,North,0,0.0,0.0,20,0.00,CLR,,0.00,WeatherDisplay:10.37,2013-09-09 19:34:00,
2013-09-09 15:39:00,77.5,33.3,29.80,North,0,0.0,0.0,20,0.00,CLR,,0.00,WeatherDisplay:10.37,2013-09-09 19:39:00,
2013-09-09 15:44:00,77.5,33.3,29.80,North,0,0.0,0.0,20,0.00,CLR,,0.00,WeatherDisplay:10.37,2013-09-09 19:44:00,
2013-09-09 15:49:00,77.5,33.3,29.80,North,0,0.0,0.0,20,0.00,CLR,,0.00,WeatherDisplay:10.37,2013-09-09 19:49:00,
2013-09-09 15:54:00,77.5,33.3,29.80,North,0,0.0,0.0,20,0.00,CLR,,0.00,WeatherDisplay:10.37,2013-09-09 19:54:00,
2013-09-09 15:59:00,77.5,33.3,29.80,North,0,0.0,0.0,20,0.00,CLR,,0.00,WeatherDisplay:10.37,2013-09-09 19:59:00,
2013-09-09 16:04:00,77.7,33.4,29.77,North,0,0.0,0.0,20,0.00,CLR,,0.00,WeatherDisplay:10.37,2013-09-09 20:04:00,
2013-09-09 16:09:00,77.5,33.3,29.77,North,0,0.0,0.0,20,0.00,CLR,,0.00,WeatherDisplay:10.37,2013-09-09 20:09:00,
2013-09-09 16:14:00,77.4,33.1,29.77,North,0,0.0,0.0,20,0.00,CLR,,0.00,WeatherDisplay:10.37,2013-09-09 20:14:00,
2013-09-09 16:19:00,77.5,33.3,29.77,North,0,0.0,0.0,20,0.00,CLR,,0.00,WeatherDisplay:10.37,2013-09-09 20:19:00,
2013-09-09 16:24:00,77.5,33.3,29.77,North,0,0.0,0.0,20,0.00,CLR,,0.00,WeatherDisplay:10.37,2013-09-09 20:24:00,
2013-09-09 16:29:00,77.7,33.4,29.77,North,0,0.0,0.0,20,0.00,CLR,,0.00,WeatherDisplay:10.37,2013-09-09 20:29:00,
2013-09-09 16:34:00,77.7,33.4,29.77,North,0,0.0,0.0,20,0.00,CLR,,0.00,WeatherDisplay:10.37,2013-09-09 20:34:00,
2013-09-09 16:39:00,77.7,33.4,29.77,North,0,0.0,0.0,20,0.00,CLR,,0.00,WeatherDisplay:10.37,2013-09-09 20:39:00,
2013-09-09 16:44:00,77.5,33.3,29.77,North,0,0.0,0.0,20,0.00,CLR,,0.00,WeatherDisplay:10.37,2013-09-09 20:44:00,
2013-09-09 16:49:00,77.5,33.3,29.77,North,0,0.0,0.0,20,0.00,CLR,,0.00,WeatherDisplay:10.37,2013-09-09 20:49:00,
2013-09-09 16:54:00,77.4,33.1,29.77,North,0,0.0,0.0,20,0.00,CLR,,0.00,WeatherDisplay:10.37,2013-09-09 20:54:00,
2013-09-09 16:59:00,77.4,33.1,29.77,North,0,0.0,0.0,20,0.00,CLR,,0.00,WeatherDisplay:10.37,2013-09-09 20:59:00,
2013-09-09 17:04:00,77.2,33.0,29.77,North,0,0.0,0.0,20,0.00,CLR,,0.00,WeatherDisplay:10.37,2013-09-09 21:04:00,
2013-09-09 17:09:00,77.2,34.2,29.77,North,0,0.0,0.0,21,0.00,CLR,,0.00,WeatherDisplay:10.37,2013-09-09 21:09:00,
2013-09-09 17:14:00,77.2,34.2,29.77,North,0,0.0,0.0,21,0.00,CLR,,0.00,WeatherDisplay:10.37,2013-09-09 21:14:00,
2013-09-09 17:19:00,77.2,34.2,29.77,North,0,0.0,0.0,21,0.00,CLR,,0.00,WeatherDisplay:10.37,2013-09-09 21:19:00,
2013-09-09 17:24:00,77.0,34.1,29.77,North,0,0.0,0.0,21,0.00,CLR,,0.00,WeatherDisplay:10.37,2013-09-09 21:24:00,
2013-09-09 17:29:00,77.0,34.1,29.77,North,0,0.0,0.0,21,0.00,CLR,,0.00,WeatherDisplay:10.37,2013-09-09 21:29:00,
2013-09-09 17:34:00,76.8,33.9,29.77,North,0,0.0,0.0,21,0.00,CLR,,0.00,WeatherDisplay:10.37,2013-09-09 21:34:00,
2013-09-09 17:39:00,76.6,34.9,29.77,North,0,0.0,0.0,22,0.00,CLR,,0.00,WeatherDisplay:10.37,2013-09-09 21:39:00,
2013-09-09 17:44:00,76.6,34.9,29.77,North,0,0.0,0.0,22,0.00,CLR,,0.00,WeatherDisplay:10.37,2013-09-09 21:44:00,
2013-09-09 17:49:00,76.6,34.9,29.77,North,0,0.0,0.0,22,0.00,CLR,,0.00,WeatherDisplay:10.37,2013-09-09 21:49:00,
2013-09-09 17:54:00,76.6,34.9,29.77,North,0,0.0,0.0,22,0.00,CLR,,0.00,WeatherDisplay:10.37,2013-09-09 21:54:00,
2013-09-09 17:59:00,76.6,34.9,29.77,North,0,0.0,0.0,22,0.00,CLR,,0.00,WeatherDisplay:10.37,2013-09-09 21:59:00,
2013-09-09 18:04:00,76.8,35.1,29.77,North,0,0.0,0.0,22,0.00,CLR,,0.00,WeatherDisplay:10.37,2013-09-09 22:04:00,
2013-09-09 18:09:00,76.8,35.1,29.77,North,0,0.0,0.0,22,0.00,CLR,,0.00,WeatherDisplay:10.37,2013-09-09 22:09:00,
2013-09-09 18:14:00,76.6,34.9,29.77,North,0,0.0,0.0,22,0.00,CLR,,0.00,WeatherDisplay:10.37,2013-09-09 22:14:00,
2013-09-09 18:19:00,76.6,34.9,29.77,North,0,0.0,0.0,22,0.00,CLR,,0.00,WeatherDisplay:10.37,2013-09-09 22:19:00,
2013-09-09 18:24:00,76.6,34.9,29.77,North,0,0.0,0.0,22,0.00,CLR,,0.00,WeatherDisplay:10.37,2013-09-09 22:24:00,
2013-09-09 18:29:00,76.5,34.8,29.77,North,0,0.0,0.0,22,0.00,CLR,,0.00,WeatherDisplay:10.37,2013-09-09 22:29:00,
2013-09-09 18:34:00,76.3,35.7,29.77,North,0,0.0,0.0,23,0.00,CLR,,0.00,WeatherDisplay:10.37,2013-09-09 22:34:00,
2013-09-09 18:39:00,76.3,35.7,29.77,North,0,0.0,0.0,23,0.00,CLR,,0.00,WeatherDisplay:10.37,2013-09-09 22:39:00,
2013-09-09 18:44:00,76.1,35.6,29.77,North,0,0.0,0.0,23,0.00,CLR,,0.00,WeatherDisplay:10.37,2013-09-09 22:44:00,
2013-09-09 18:49:00,76.1,35.6,29.77,North,0,0.0,0.0,23,0.00,CLR,,0.00,WeatherDisplay:10.37,2013-09-09 22:49:00,
2013-09-09 18:54:00,75.9,35.4,29.77,North,0,0.0,0.0,23,0.00,CLR,,0.00,WeatherDisplay:10.37,2013-09-09 22:54:00,
2013-09-09 18:59:00,75.9,35.4,29.77,North,0,0.0,0.0,23,0.00,CLR,,0.00,WeatherDisplay:10.37,2013-09-09 22:59:00,
2013-09-09 19:04:00,75.7,36.4,29.77,North,0,0.0,0.0,24,0.00,CLR,,0.00,WeatherDisplay:10.37,2013-09-09 23:04:00,
2013-09-09 19:09:00,75.7,36.4,29.77,North,0,0.0,0.0,24,0.00,CLR,,0.00,WeatherDisplay:10.37,2013-09-09 23:09:00,
2013-09-09 19:14:00,75.6,37.2,29.77,North,0,0.0,0.0,25,0.00,CLR,,0.00,WeatherDisplay:10.37,2013-09-09 23:14:00,
2013-09-09 19:19:00,75.4,37.1,29.77,North,0,0.0,0.0,25,0.00,CLR,,0.00,WeatherDisplay:10.37,2013-09-09 23:19:00,
2013-09-09 19:25:00,75.2,36.9,29.77,North,0,0.0,0.0,25,0.00,CLR,,0.00,WeatherDisplay:10.37,2013-09-09 23:25:00,
2013-09-09 19:30:00,75.2,36.9,29.77,North,0,0.0,0.0,25,0.00,CLR,,0.00,WeatherDisplay:10.37,2013-09-09 23:30:00,
2013-09-09 19:35:00,75.0,37.8,29.77,North,0,0.0,0.0,26,0.00,CLR,,0.00,WeatherDisplay:10.37,2013-09-09 23:35:00,
2013-09-09 19:40:00,74.8,37.6,29.77,North,0,0.0,0.0,26,0.00,CLR,,0.00,WeatherDisplay:10.37,2013-09-09 23:40:00,
2013-09-09 19:45:00,74.8,38.6,29.77,North,0,0.0,0.0,27,0.00,CLR,,0.00,WeatherDisplay:10.37,2013-09-09 23:45:00,
2013-09-09 19:50:00,74.7,38.4,29.77,North,0,0.0,0.0,27,0.00,CLR,,0.00,WeatherDisplay:10.37,2013-09-09 23:50:00,
2013-09-09 19:55:00,74.5,38.3,29.77,North,0,0.0,0.0,27,0.00,CLR,,0.00,WeatherDisplay:10.37,2013-09-09 23:55:00,
2013-09-09 20:00:00,74.3,39.1,29.77,North,0,0.0,0.0,28,0.00,CLR,,0.00,WeatherDisplay:10.37,2013-09-10 00:00:00,
2013-09-09 20:05:00,74.1,39.8,29.77,North,0,0.0,0.0,29,0.00,CLR,,0.00,WeatherDisplay:10.37,2013-09-10 00:05:00,
2013-09-09 20:10:00,74.1,39.8,29.77,North,0,0.0,0.0,29,0.00,CLR,,0.00,WeatherDisplay:10.37,2013-09-10 00:10:00,
2013-09-09 20:15:00,73.9,39.7,29.77,North,0,0.0,0.0,29,0.00,CLR,,0.00,WeatherDisplay:10.37,2013-09-10 00:15:00,
2013-09-09 20:20:00,73.9,40.5,29.77,North,0,0.0,0.0,30,0.00,CLR,,0.00,WeatherDisplay:10.37,2013-09-10 00:20:00,
2013-09-09 20:25:00,73.8,40.4,29.77,North,0,0.0,0.0,30,0.00,CLR,,0.00,WeatherDisplay:10.37,2013-09-10 00:25:00,
2013-09-09 20:30:00,73.6,41.1,29.77,North,0,0.0,0.0,31,0.00,CLR,,0.00,WeatherDisplay:10.37,2013-09-10 00:30:00,
2013-09-09 20:35:00,73.4,40.9,29.77,North,0,0.0,0.0,31,0.00,CLR,,0.00,WeatherDisplay:10.37,2013-09-10 00:35:00,
2013-09-09 20:40:00,73.4,40.9,29.77,North,0,0.0,0.0,31,0.00,CLR,,0.00,WeatherDisplay:10.37,2013-09-10 00:40:00,
2013-09-09 20:45:00,73.2,41.6,29.77,North,0,0.0,0.0,32,0.00,CLR,,0.00,WeatherDisplay:10.37,2013-09-10 00:45:00,
2013-09-09 20:50:00,73.2,41.6,29.77,North,0,0.0,0.0,32,0.00,CLR,,0.00,WeatherDisplay:10.37,2013-09-10 00:50:00,
2013-09-09 20:55:00,73.0,41.4,29.77,North,0,0.0,0.0,32,0.00,CLR,,0.00,WeatherDisplay:10.37,2013-09-10 00:55:00,
2013-09-09 21:00:00,73.0,41.4,29.77,North,0,0.0,0.0,32,0.00,CLR,,0.00,WeatherDisplay:10.37,2013-09-10 01:00:00,
2013-09-09 21:05:00,73.0,41.4,29.77,North,0,0.0,0.0,32,0.00,CLR,,0.00,WeatherDisplay:10.37,2013-09-10 01:05:00,
2013-09-09 21:10:00,72.9,41.3,29.77,North,0,0.0,0.0,32,0.00,CLR,,0.00,WeatherDisplay:10.37,2013-09-10 01:10:00,
2013-09-09 21:15:00,72.9,41.3,29.77,North,0,0.0,0.0,32,0.00,CLR,,0.00,WeatherDisplay:10.37,2013-09-10 01:15:00,
2013-09-09 21:20:00,72.9,41.3,29.77,North,0,0.0,0.0,32,0.00,CLR,,0.00,WeatherDisplay:10.37,2013-09-10 01:20:00,
2013-09-09 21:25:00,72.7,41.1,29.77,North,0,0.0,0.0,32,0.00,CLR,,0.00,WeatherDisplay:10.37,2013-09-10 01:25:00,
2013-09-09 21:30:00,72.7,41.9,29.77,North,0,0.0,0.0,33,0.00,CLR,,0.00,WeatherDisplay:10.37,2013-09-10 01:30:00,
2013-09-09 21:35:00,72.5,41.7,29.77,North,0,0.0,0.0,33,0.00,CLR,,0.00,WeatherDisplay:10.37,2013-09-10 01:35:00,
2013-09-09 21:40:00,72.3,41.6,29.77,North,0,0.0,0.0,33,0.00,CLR,,0.00,WeatherDisplay:10.37,2013-09-10 01:40:00,
2013-09-09 21:45:00,72.3,41.6,29.77,North,0,0.0,0.0,33,0.00,CLR,,0.00,WeatherDisplay:10.37,2013-09-10 01:45:00,
2013-09-09 21:50:00,72.1,41.4,29.77,North,0,0.0,0.0,33,0.00,CLR,,0.00,WeatherDisplay:10.37,2013-09-10 01:50:00,
2013-09-09 21:55:00,72.0,41.3,29.77,North,0,0.0,0.0,33,0.00,CLR,,0.00,WeatherDisplay:10.37,2013-09-10 01:55:00,
2013-09-09 22:00:00,72.0,41.3,29.77,North,0,0.0,0.0,33,0.00,CLR,,0.00,WeatherDisplay:10.37,2013-09-10 02:00:00,
2013-09-09 22:05:00,71.8,41.1,29.77,North,0,0.0,0.0,33,0.00,CLR,,0.00,WeatherDisplay:10.37,2013-09-10 02:05:00,
2013-09-09 22:10:00,71.8,41.9,29.77,North,0,0.0,0.0,34,0.00,CLR,,0.00,WeatherDisplay:10.37,2013-09-10 02:10:00,
2013-09-09 22:15:00,71.6,41.7,29.77,North,0,0.0,0.0,34,0.00,CLR,,0.00,WeatherDisplay:10.37,2013-09-10 02:15:00,
2013-09-09 22:20:00,71.6,41.7,29.77,North,0,0.0,0.0,34,0.00,CLR,,0.00,WeatherDisplay:10.37,2013-09-10 02:20:00,
2013-09-09 22:25:00,71.4,42.3,29.77,North,0,0.0,0.0,35,0.00,CLR,,0.00,WeatherDisplay:10.37,2013-09-10 02:25:00,
2013-09-09 22:30:00,71.4,42.3,29.77,North,0,0.0,0.0,35,0.00,CLR,,0.00,WeatherDisplay:10.37,2013-09-10 02:30:00,
2013-09-09 22:35:00,71.4,42.3,29.77,North,0,0.0,0.0,35,0.00,CLR,,0.00,WeatherDisplay:10.37,2013-09-10 02:35:00,
2013-09-09 22:40:00,71.2,42.2,29.77,North,0,0.0,0.0,35,0.00,CLR,,0.00,WeatherDisplay:10.37,2013-09-10 02:40:00,
2013-09-09 22:45:00,71.2,42.2,29.77,North,0,0.0,0.0,35,0.00,CLR,,0.00,WeatherDisplay:10.37,2013-09-10 02:45:00,
2013-09-09 22:50:00,71.1,42.0,29.77,North,0,0.0,0.0,35,0.00,CLR,,0.00,WeatherDisplay:10.37,2013-09-10 02:50:00,
2013-09-09 22:55:00,71.1,42.0,29.77,North,0,0.0,0.0,35,0.00,CLR,,0.00,WeatherDisplay:10.37,2013-09-10 02:55:00,
2013-09-09 23:00:00,70.9,41.9,29.77,North,0,0.0,0.0,35,0.00,CLR,,0.00,WeatherDisplay:10.37,2013-09-10 03:00:00,
2013-09-09 23:05:00,70.7,42.4,29.77,North,0,0.0,0.0,36,0.00,CLR,,0.00,WeatherDisplay:10.37,2013-09-10 03:05:00,
2013-09-09 23:10:00,70.7,42.4,29.77,North,0,0.0,0.0,36,0.00,CLR,,0.00,WeatherDisplay:10.37,2013-09-10 03:10:00,
2013-09-09 23:15:00,70.7,42.4,29.77,North,0,0.0,0.0,36,0.00,CLR,,0.00,WeatherDisplay:10.37,2013-09-10 03:15:00,
2013-09-09 23:20:00,70.5,42.3,29.77,North,0,0.0,0.0,36,0.00,CLR,,0.00,WeatherDisplay:10.37,2013-09-10 03:20:00,
2013-09-09 23:25:00,70.5,42.3,29.77,North,0,0.0,0.0,36,0.00,CLR,,0.00,WeatherDisplay:10.37,2013-09-10 03:25:00,
2013-09-09 23:30:00,70.3,42.1,29.77,North,0,0.0,0.0,36,0.00,CLR,,0.00,WeatherDisplay:10.37,2013-09-10 03:30:00,
2013-09-09 23:35:00,70.3,42.8,29.80,North,0,0.0,0.0,37,0.00,CLR,,0.00,WeatherDisplay:10.37,2013-09-10 03:35:00,
2013-09-09 23:40:00,70.3,42.8,29.80,North,0,0.0,0.0,37,0.00,CLR,,0.00,WeatherDisplay:10.37,2013-09-10 03:40:00,
2013-09-09 23:45:00,70.3,42.8,29.80,North,0,0.0,0.0,37,0.00,CLR,,0.00,WeatherDisplay:10.37,2013-09-10 03:45:00,
2013-09-09 23:50:00,70.2,42.7,29.77,North,0,0.0,0.0,37,0.00,CLR,,0.00,WeatherDisplay:10.37,2013-09-10 03:50:00,
2013-09-09 23:55:00,70.2,42.7,29.77,North,0,0.0,0.0,37,0.00,CLR,,0.00,WeatherDisplay:10.37,2013-09-10 03:55:00,